Powrót do katalogu

SL-14 DEB

AktywnyPO
NORAD 35524·DEBRIS·🇷🇺 Russia

Wystrzelony Aug 18, 1987 z Plesetsk Cosmodrome

Loading…

Następne Przeloty (najbliższe 24 godziny)

TLE

ŚwieżeSource: Space-Track

Epoka: Sep 11, 2026, 13:38 UTC

1 35524U 87068CT  26254.56867762  .00003019  00000-0  13804-2 0  9995
2 35524  82.5063   1.4489 0026625 332.0728  27.9022 14.21035939192974

Śledź SL-14 DEB w czasie rzeczywistym z AllMySat

Download on the App Store